Вернуться в каталог

STARLINK-11708

АктивенСвязьVLEO
NORAD 64238·PAYLOAD·🇺🇸 United States

Запущен Jun 3, 2025 с Cape Canaveral Space Force Station

Loading…

Ближайшие Пролёты (ближайшие 24 часа)

TLE

СвежийSource: CelesTrak SupGP

Эпоха: Sep 15, 2026, 02:47 UTC

1 64238C 25119F   26258.11645833  .00040853  00000+0  31730-3 0  2589
2 64238  43.0003 147.6705 0001728 270.4566  53.8652 15.70818233    11

Отслеживайте STARLINK-11708 в реальном времени с AllMySat

Download on the App Store